Location: Cabrera Baja
(40.4089°N, 4.3354°W)
Time: 03:32:45
(UTC+00:00)

Okean 1-7 - Pass Details

Date: 14 July 2020
Orbit: 592 x 618 km, 82.5° (Epoch: 03 August)

Event Time Altitude Azimuth Distance (km) Brightness Sun altitude
Rises 01:13:12 0° 360° (N) 2,900 7.7 -26.9°
Reaches altitude 10° 01:15:33 10° 8° (N) 1,990 6.6 -26.8°
Maximum altitude 01:19:42 40° 78° (ENE) 915 4.0 -26.6°
Enters shadow 01:19:45 40° 79° (E) 915 4.0 -26.6°
